Location: Elstree
(51.6403°N, 0.2969°W)
Time: 23:07:43
(UTC+00:00)

Cosmos 2084 Rocket - Visible Passes

Search period start: 24 June 2021 00:00
Search period end: 04 July 2021 00:00
Orbit: 521 x 659 km, 62.8° (Epoch: 24 June)

Date Brightness Start Highest point End Pass type
(mag) Time Alt. Az. Time Alt. Az. Time Alt. Az.
24 Jun 3.8 02:47:07 10° SSW 02:50:56 51° SE 02:54:50 10° NE visible
25 Jun 5.6 01:18:18 10° SE 01:20:02 13° ESE 01:21:46 10° E visible
25 Jun 3.3 02:54:52 10° SW 02:58:48 81° SE 03:02:51 10° NE visible
26 Jun 5.0 01:25:34 14° SSE 01:27:41 20° ESE 01:30:39 10° ENE visible
27 Jun 4.3 01:33:08 18° S 01:35:24 32° SE 01:39:00 10° ENE visible
28 Jun 3.6 01:40:39 19° SSW 01:43:12 51° SE 01:47:07 10° NE visible
29 Jun 5.4 00:11:38 12° SE 00:12:18 13° ESE 00:14:06 10° E visible
29 Jun 3.2 01:48:08 17° SW 01:51:05 82° SE 01:55:07 10° NE visible
30 Jun 4.8 00:19:04 19° SE 00:19:57 21° ESE 00:22:57 10° ENE visible
30 Jun 3.5 01:55:34 13° WSW 01:59:02 66° NW 02:03:03 10° NE visible
01 Jul 4.2 00:26:27 26° SSE 00:27:41 32° SE 00:31:17 10° ENE visible
01 Jul 4.2 02:03:14 10° WSW 02:07:02 45° NW 02:10:57 10° NE visible
02 Jul 3.5 00:33:46 29° SSW 00:35:29 52° SE 00:39:24 10° NE visible
02 Jul 4.8 02:11:31 10° W 02:15:07 33° NNW 02:18:51 10° NE visible
02 Jul 5.3 23:04:34 13° ESE 23:04:34 13° ESE 23:06:25 10° E visible
03 Jul 3.1 00:41:02 24° SW 00:43:21 83° SE 00:47:24 10° NE visible
03 Jul 5.2 02:19:53 10° W 02:23:16 26° NNW 02:26:44 10° NE visible
03 Jul 4.7 23:11:45 20° SE 23:12:13 21° ESE 23:15:15 10° ENE visible
